{"data":{"norad_id":52084,"epoch":"2026-09-20T23:27:15.316704Z","epoch_age_seconds":79491,"freshness":"FRESH","line1":"1 52084U 22027A   26263.97726061 -.00000081  00000+0  15081-4 0  9997","line2":"2 52084  63.3962 315.0156 0060347 354.9782   5.0632 13.45440344221800","mean_motion":13.45440344,"eccentricity":0.0060347,"inclination_deg":63.3962,"raan_deg":315.0156,"arg_perigee_deg":354.9782,"mean_anomaly_deg":5.0632,"bstar":1.5081e-5,"rev_number":22180,"period_min":107.02815672368,"perigee_km":1044.019379028,"apogee_km":1134.1442296652,"semimajor_km":7467.2188043466,"source":"CELESTRAK","updated_at":"2026-09-21T09:00:08.467116Z"}}